CW4185 Weather Reports


time (UTC)temp
C
wind
direction
speed
KPH
gust
KPH
rain 1hr
cm
rain 24hr
cm
rain mn
cm
humidity
%
barometer
mb
20260508211647 20 20 8.0 17.7 0.53 0.00 2.06 99 1013.2
20260508211148 20 56 9.7 22.5 1.50 0.00 2.06 99 1013.2
20260508210647 20 41 6.4 29.0 1.75 0.00 1.96 99 1013.2
20260508210148 20 20 17.7 20.9 1.45 0.00 1.80 98 1013.2
20260508205647 20 42 4.8 20.9 1.85 0.00 1.65 98 1013.9
20260508205149 20 342 19.3 20.9 2.95 0.00 1.55 98 1013.2
20260508204646 20 28 22.5 33.8 3.53 0.00 1.32 97 1012.5
20260508204146 20 30 20.9 29.0 4.85 0.00 1.04 97 1013.2
20260508203647 20 48 8.0 22.5 3.96 0.00 0.66 96 1012.5
20260508203146 20 28 14.5 29.0 0.79 0.00 0.13 93 1012.9
20260508202646 21 348 8.0 32.2 0.00 0.00 0.00 91 1012.5
20260508202147 21 37 14.5 43.5 0.00 0.00 0.00 90 1012.2
20260508201647 21 29 8.0 30.6 0.00 0.00 0.00 89 1011.9
20260508201147 21 58 12.9 38.6 0.00 0.00 0.00 89 1012.2
20260508200649 21 15 14.5 35.4 0.00 0.00 0.00 89 1011.9
20260508200147 22 43 14.5 30.6 0.00 0.00 0.00 88 1011.9
20260508195649 22 51 17.7 37.0 0.00 0.00 0.00 89 1012.2
20260508195149 22 35 14.5 27.4 0.00 0.00 0.00 88 1012.2
20260508194651 23 53 24.1 37.0 0.00 0.00 0.00 87 1012.2
20260508194148 23 52 16.1 29.0 0.00 0.00 0.00 87 1012.2
20260508193648 23 54 16.1 24.1 0.00 0.00 0.00 88 1012.5
20260508193146 23 27 14.5 20.9 0.00 0.00 0.00 88 1012.9
20260508192649 23 47 12.9 17.7 0.00 0.00 0.00 87 1012.9
20260508192153 23 69 11.3 19.3 0.00 0.00 0.00 87 1012.9
20260508191148 24 38 6.4 16.1 0.00 0.00 0.00 86 1012.9
20260508190647 24 50 6.4 22.5 0.00 0.00 0.00 85 1012.9
20260508190151 25 18 9.7 16.1 0.00 0.00 0.00 84 1012.9
20260508185646 25 34 9.7 17.7 0.00 0.00 0.00 84 1012.5
20260508185148 25 63 9.7 14.5 0.00 0.00 0.00 82 1012.5
20260508184647 25 58 8.0 22.5 0.00 0.00 0.00 82 1012.5
20260508184150 25 165 8.0 9.7 0.00 0.00 0.00 83 1012.2
20260508183649 25 129 8.0 19.3 0.00 0.00 0.00 83 1012.2
20260508183147 25 85 8.0 16.1 0.00 0.00 0.00 82 1012.2
20260508182647 25 81 11.3 12.9 0.00 0.00 0.00 83 1012.5
20260508182148 25 66 14.5 17.7 0.00 0.00 0.00 82 1012.5
20260508181650 25 59 9.7 14.5 0.00 0.00 0.00 81 1012.5
20260508181146 25 125 3.2 19.3 0.00 0.00 0.00 81 1012.5
20260508180648 25 114 4.8 16.1 0.00 0.00 0.00 81 1012.2
20260508180148 26 68 16.1 20.9 0.00 0.00 0.00 79 1012.5
20260508175649 26 62 6.4 16.1 0.00 0.00 0.00 80 1012.2
20260508175147 25 96 6.4 17.7 0.00 0.00 0.00 80 1012.2
20260508174652 25 39 6.4 17.7 0.00 0.00 0.00 80 1012.2
20260508174148 25 101 4.8 19.3 0.00 0.00 0.00 79 1012.5
20260508173647 25 79 12.9 16.1 0.00 0.00 0.00 80 1012.5
20260508173148 25 93 4.8 17.7 0.00 0.00 0.00 81 1012.9
20260508172647 25 72 14.5 20.9 0.00 0.00 0.00 80 1012.9
20260508172148 25 65 9.7 16.1 0.00 0.00 0.00 82 1012.9
20260508171648 25 60 12.9 16.1 0.00 0.00 0.00 82 1012.9
20260508171147 25 76 9.7 17.7 0.00 0.00 0.00 81 1012.9
20260508170650 25 43 6.4 20.9 0.00 0.00 0.00 81 1012.9
20260508170148 25 198 1.6 12.9 0.00 0.00 0.00 83 1012.9
20260508165649 25 165 3.2 14.5 0.00 0.00 0.00 81 1012.9
20260508165148 25 146 8.0 16.1 0.00 0.00 0.00 82 1013.2
20260508164651 25 171 4.8 11.3 0.00 0.00 0.00 83 1013.2
20260508164150 24 113 4.8 11.3 0.00 0.00 0.00 84 1012.9
20260508163651 24 93 8.0 14.5 0.00 0.00 0.00 84 1013.2
20260508162730 24 59 9.7 12.9 0.00 0.00 0.00 82 1013.2
20260508162149 23 137 6.4 12.9 0.00 0.00 0.00 85 1013.2
20260508161649 23 99 11.3 24.1 0.00 0.00 0.00 84 1013.2
20260508161149 23 71 9.7 20.9 0.00 0.00 0.00 85 1013.2
20260508160649 23 69 12.9 16.1 0.00 0.00 0.00 84 1013.2
20260508160149 23 66 14.5 17.7 0.00 0.00 0.00 85 1013.5
20260508155648 23 203 0.0 11.3 0.00 0.00 0.00 85 1013.5
20260508155148 23 75 8.0 8.0 0.00 0.00 0.00 85 1013.9
20260508154649 22 345 4.8 12.9 0.00 0.00 0.00 86 1013.9
20260508154149 22 69 6.4 16.1 0.00 0.00 0.00 86 1013.9
20260508153648 22 42 4.8 14.5 0.00 0.00 0.00 87 1013.9
20260508153148 22 62 11.3 16.1 0.00 0.00 0.00 87 1013.9
20260508152650 22 71 3.2 8.0 0.00 0.00 0.00 87 1013.9
20260508152149 22 138 3.2 12.9 0.00 0.00 0.00 88 1013.9
20260508151649 22 84 9.7 17.7 0.00 0.00 0.00 87 1013.5
20260508151147 22 91 6.4 9.7 0.00 0.00 0.00 87 1013.9
20260508150649 22 60 8.0 12.9 0.00 0.00 0.00 87 1013.5
20260508150151 22 73 8.0 17.7 0.00 0.00 0.00 88 1013.5
20260508145647 22 84 8.0 16.1 0.00 0.00 0.00 87 1013.9
20260508145149 22 55 8.0 14.5 0.00 0.00 0.00 86 1013.9
20260508144646 22 70 8.0 11.3 0.00 0.00 0.00 86 1013.9
20260508144146 22 65 11.3 17.7 0.00 0.00 0.00 85 1013.5
20260508143647 22 69 8.0 19.3 0.00 0.00 0.00 84 1013.5
20260508143147 22 64 11.3 20.9 0.00 0.00 0.00 85 1013.5
20260508142648 22 77 14.5 22.5 0.00 0.00 0.00 86 1013.5
20260508142148 22 61 14.5 14.5 0.00 0.00 0.00 85 1013.2
20260508141649 22 83 8.0 17.7 0.00 0.00 0.00 84 1013.5
20260508141149 22 63 16.1 17.7 0.00 0.00 0.00 85 1013.5
20260508140649 21 62 14.5 20.9 0.00 0.00 0.00 86 1013.5
20260508140150 21 78 9.7 11.3 0.00 0.00 0.00 86 1013.9
20260508135648 21 64 14.5 20.9 0.00 0.00 0.00 86 1013.5
20260508135147 21 62 11.3 14.5 0.00 0.00 0.00 86 1013.5
20260508134649 21 77 8.0 17.7 0.00 0.00 0.00 87 1013.5
20260508134149 21 82 8.0 22.5 0.00 0.00 0.00 87 1013.9
20260508133648 21 70 8.0 14.5 0.00 0.00 0.00 86 1013.9
20260508133149 21 65 9.7 19.3 0.00 0.00 0.00 86 1013.9
20260508132648 21 60 9.7 17.7 0.00 0.00 0.00 86 1013.9
20260508132149 21 37 11.3 12.9 0.00 0.00 0.00 87 1013.9
20260508131648 21 44 6.4 16.1 0.00 0.00 0.00 87 1013.9
20260508131148 21 49 9.7 19.3 0.00 0.00 0.00 87 1013.9
20260508130647 21 55 16.1 19.3 0.00 0.00 0.00 87 1013.9
20260508130151 21 40 6.4 9.7 0.00 0.00 0.00 88 1014.2
20260508125647 21 50 16.1 20.9 0.00 0.00 0.00 88 1014.2
20260508125148 21 24 11.3 19.3 0.00 0.00 0.00 88 1014.2
20260508124649 21 4 8.0 12.9 0.00 0.00 0.00 88 1014.6
20260508124146 21 40 14.5 22.5 0.00 0.00 0.00 87 1014.6
20260508123651 21 39 9.7 14.5 0.00 0.00 0.00 87 1014.6
20260508123149 21 348 6.4 9.7 0.00 0.00 0.00 87 1014.6
20260508122652 21 85 4.8 12.9 0.00 0.00 0.00 87 1014.2
20260508122149 21 41 9.7 16.1 0.00 0.00 0.00 88 1014.2
20260508121649 21 18 8.0 11.3 0.00 0.00 0.00 88 1014.2
20260508121149 21 54 11.3 14.5 0.00 0.00 0.00 88 1014.2
20260508120648 21 33 6.4 16.1 0.00 0.00 0.00 88 1014.2
20260508120149 21 29 0.0 19.3 0.00 0.00 0.00 87 1013.9
20260508115646 21 41 4.8 8.0 0.00 0.00 0.00 88 1013.2
20260508115147 21 27 4.8 17.7 0.00 0.00 0.00 88 1013.2
20260508114650 21 27 8.0 16.1 0.00 0.00 0.00 88 1013.5
20260508114148 21 57 6.4 12.9 0.00 0.00 0.00 88 1013.5
20260508113650 21 102 6.4 14.5 0.00 0.00 0.00 88 1013.5
20260508113149 21 67 12.9 14.5 0.00 0.00 0.00 89 1013.5
20260508112648 21 8 3.2 11.3 0.00 0.00 0.00 88 1013.9
20260508112149 21 52 1.6 9.7 0.00 0.00 0.00 89 1014.2
20260508111651 21 61 6.4 11.3 0.00 0.00 0.00 89 1014.2
20260508111150 21 0 4.8 9.7 0.00 0.00 0.00 89 1014.2
20260508110649 21 62 8.0 12.9 0.00 0.00 0.00 89 1014.6
20260508110149 21 22 6.4 11.3 0.00 0.00 0.00 89 1014.2
20260508105647 20 51 4.8 11.3 0.00 0.00 0.00 89 1013.9
20260508105147 21 59 6.4 16.1 0.00 0.00 0.00 89 1013.9
20260508104647 21 72 3.2 8.0 0.00 0.00 0.00 89 1013.9
20260508104150 21 30 3.2 11.3 0.00 0.00 0.00 89 1013.9
20260508103648 20 67 8.0 9.7 0.00 0.00 0.00 89 1013.5
20260508103148 20 72 9.7 11.3 0.00 0.00 0.00 89 1013.5
20260508102650 20 357 3.2 11.3 0.00 0.00 0.00 89 1013.5
20260508102150 20 67 8.0 12.9 0.00 0.00 0.00 89 1013.5
20260508101650 20 52 9.7 14.5 0.00 0.00 0.00 90 1013.2
20260508101149 20 68 14.5 17.7 0.00 0.00 0.00 90 1012.9
20260508100646 20 93 4.8 9.7 0.00 0.00 0.00 90 1012.9
20260508100150 21 59 9.7 11.3 0.00 0.00 0.00 90 1012.9
20260508095648 21 70 8.0 16.1 0.00 0.00 0.00 90 1012.9
20260508095149 21 47 4.8 12.9 0.00 0.00 0.00 90 1012.9
20260508094646 21 56 8.0 14.5 0.00 0.00 0.00 90 1012.9
20260508094151 21 69 6.4 16.1 0.00 0.00 0.00 90 1012.9
20260508093649 21 50 11.3 12.9 0.00 0.00 0.00 90 1012.9
20260508093151 21 66 8.0 11.3 0.00 0.00 0.00 89 1013.2
20260508092651 21 39 8.0 9.7 0.00 0.00 0.00 90 1012.9
20260508092149 21 0 3.2 14.5 0.00 0.00 0.00 90 1012.9
20260508091650 21 41 4.8 14.5 0.00 0.00 0.00 90 1012.9
20260508091149 21 46 6.4 9.7 0.00 0.00 0.00 89 1012.9
20260508090650 21 53 6.4 11.3 0.00 0.00 0.00 90 1012.5
20260508090149 21 58 11.3 14.5 0.00 0.00 0.00 90 1012.9
20260508085647 21 31 4.8 12.9 0.00 0.00 0.00 90 1012.9
20260508085149 21 57 8.0 14.5 0.00 0.00 0.00 89 1012.9
20260508084649 21 17 11.3 14.5 0.00 0.00 0.00 89 1012.9
20260508084148 21 347 3.2 8.0 0.00 0.00 0.00 89 1012.9
20260508083649 21 43 8.0 12.9 0.00 0.00 0.00 88 1012.5
20260508083147 22 44 6.4 9.7 0.00 0.00 0.00 88 1012.9
20260508082647 21 39 4.8 9.7 0.00 0.00 0.00 89 1012.9
20260508082149 21 50 3.2 9.7 0.00 0.00 0.00 89 1012.9
20260508081650 22 46 4.8 11.3 0.00 0.00 0.00 88 1012.5
20260508081146 22 63 6.4 8.0 0.00 0.00 0.00 88 1012.9
20260508080646 22 65 4.8 8.0 0.00 0.00 0.00 89 1012.9
20260508080147 22 50 4.8 8.0 0.00 0.00 0.00 88 1012.9
20260508075648 22 80 4.8 6.4 0.00 0.00 0.00 88 1012.9
20260508075149 22 58 4.8 11.3 0.00 0.00 0.00 88 1013.2
20260508074646 22 47 8.0 9.7 0.00 0.00 0.00 88 1013.2
20260508074147 22 37 3.2 6.4 0.00 0.00 0.00 88 1013.2
20260508073648 22 7 4.8 12.9 0.00 0.00 0.00 88 1012.9
20260508073151 22 39 6.4 9.7 0.00 0.00 0.00 89 1012.9
20260508072646 22 64 6.4 11.3 0.00 0.00 0.00 89 1012.9
20260508072147 22 74 4.8 9.7 0.00 0.00 0.00 89 1012.5
20260508071646 22 61 3.2 6.4 0.00 0.00 0.00 88 1012.5
20260508071147 22 36 3.2 9.7 0.00 0.00 0.00 88 1012.9
20260508070646 22 44 3.2 8.0 0.00 0.00 0.00 88 1012.9
20260508070148 22 51 4.8 9.7 0.00 0.00 0.00 88 1012.9
20260508065646 22 37 3.2 9.7 0.00 0.00 0.00 88 1012.9
20260508065149 22 38 1.6 6.4 0.00 0.00 0.00 88 1012.9
20260508064650 22 10 4.8 9.7 0.00 0.00 0.00 88 1013.2
20260508064151 22 358 4.8 6.4 0.00 0.00 0.00 87 1013.2
20260508063649 22 35 0.0 6.4 0.00 0.00 0.00 88 1012.9
20260508063150 22 29 3.2 4.8 0.00 0.00 0.00 88 1013.2
20260508062646 22 67 6.4 6.4 0.00 0.00 0.00 88 1013.2
20260508062150 22 25 3.2 6.4 0.00 0.00 0.00 87 1013.2
20260508061646 22 24 1.6 6.4 0.00 0.00 0.00 88 1013.5
20260508061150 22 69 3.2 6.4 0.00 0.00 0.00 88 1013.2
20260508060649 22 64 4.8 6.4 0.00 0.00 0.00 88 1013.5
20260508060148 22 48 3.2 8.0 0.00 0.00 0.00 88 1013.2
20260508055646 22 22 3.2 8.0 0.00 0.00 0.00 88 1013.5
20260508055147 22 54 4.8 4.8 0.00 0.00 0.00 88 1013.5
20260508054648 22 22 6.4 8.0 0.00 0.00 0.00 87 1013.5
20260508054146 22 57 4.8 9.7 0.00 0.00 0.00 88 1013.5
20260508053650 22 26 4.8 8.0 0.00 0.00 0.00 88 1013.9
20260508053150 22 51 8.0 11.3 0.00 0.00 0.00 88 1013.5
20260508052648 22 43 8.0 12.9 0.00 0.00 0.00 88 1013.5
20260508052149 22 45 6.4 12.9 0.00 0.00 0.00 88 1013.5
20260508051647 22 71 9.7 11.3 0.00 0.00 0.00 88 1013.9
20260508051150 22 45 3.2 8.0 0.00 0.00 0.00 87 1013.9
20260508050649 22 34 1.6 4.8 0.00 0.00 0.00 87 1013.9
20260508050149 22 32 8.0 8.0 0.00 0.00 0.00 88 1013.9
20260508045647 22 66 3.2 8.0 0.00 0.00 0.05 88 1013.9
20260508044719 22 40 3.2 9.7 0.00 0.00 0.05 88 1013.9
20260508044147 22 47 4.8 8.0 0.00 0.00 0.05 89 1013.9
20260508043647 22 59 8.0 11.3 0.00 0.00 0.05 88 1014.2
20260508043149 22 39 4.8 9.7 0.00 0.00 0.05 87 1014.2
20260508042647 22 51 4.8 8.0 0.00 0.00 0.05 88 1014.2
20260508042147 22 62 4.8 14.5 0.00 0.00 0.05 88 1014.2
20260508041647 22 358 4.8 14.5 0.00 0.00 0.05 88 1014.2
20260508041146 22 28 4.8 11.3 0.00 0.00 0.05 87 1014.2
20260508040650 22 359 6.4 11.3 0.00 0.00 0.05 87 1014.2
20260508040148 22 358 6.4 9.7 0.00 0.00 0.05 88 1014.2
20260508035646 22 56 9.7 16.1 0.00 0.00 0.05 87 1014.2
20260508035147 22 30 9.7 12.9 0.00 0.00 0.05 87 1014.6
20260508034648 22 45 6.4 14.5 0.00 0.00 0.05 87 1014.2
20260508034146 22 20 4.8 16.1 0.00 0.00 0.05 87 1014.6
20260508033648 23 3 3.2 8.0 0.00 0.00 0.05 87 1014.6
20260508033152 23 7 4.8 8.0 0.00 0.00 0.05 86 1014.6
20260508032646 23 52 4.8 11.3 0.00 0.00 0.05 85 1014.2
20260508032148 23 19 8.0 14.5 0.00 0.00 0.05 85 1014.2
20260508031646 23 42 8.0 16.1 0.00 0.00 0.05 85 1014.2
20260508031147 23 17 6.4 14.5 0.00 0.00 0.05 84 1014.2
20260508030647 23 353 8.0 14.5 0.00 0.00 0.05 83 1014.2
20260508030147 23 0 4.8 9.7 0.00 0.00 0.05 83 1014.2
20260508025648 23 24 6.4 14.5 0.00 0.00 0.05 83 1013.9
20260508025150 23 33 4.8 14.5 0.00 0.00 0.05 83 1013.9
20260508024646 23 26 3.2 8.0 0.00 0.00 0.05 83 1013.9
20260508024147 23 29 8.0 12.9 0.00 0.00 0.05 83 1013.9
20260508023647 23 38 8.0 14.5 0.00 0.00 0.05 83 1013.9
20260508023148 24 33 11.3 14.5 0.00 0.00 0.05 83 1014.2
20260508022331 24 5 3.2 11.3 0.00 0.00 0.05 83 1013.9
20260508021646 24 35 9.7 11.3 0.00 0.00 0.05 83 1013.9
20260508021146 24 19 8.0 12.9 0.00 0.00 0.05 82 1013.5
20260508020647 24 306 0.0 8.0 0.00 0.00 0.05 82 1013.9
20260508020148 24 16 3.2 9.7 0.00 0.00 0.05 81 1013.5
20260508015646 24 338 4.8 9.7 0.00 0.00 0.05 82 1013.9
20260508015146 24 28 4.8 12.9 0.00 0.00 0.05 82 1013.5
20260508014646 24 31 4.8 9.7 0.00 0.00 0.05 82 1013.2
20260508014147 24 347 4.8 8.0 0.00 0.00 0.05 82 1013.2
20260508013648 24 23 9.7 11.3 0.00 0.00 0.05 82 1013.2
20260508013147 24 35 4.8 8.0 0.00 0.00 0.05 82 1013.5
20260508012647 24 50 8.0 11.3 0.00 0.00 0.05 83 1013.5
20260508012146 24 2 4.8 6.4 0.00 0.00 0.05 84 1013.2
20260508011647 24 36 9.7 11.3 0.00 0.00 0.05 84 1013.2
20260508011147 24 38 6.4 12.9 0.00 0.00 0.05 84 1013.2
20260508010650 24 52 9.7 11.3 0.00 0.00 0.05 84 1012.9
20260508010147 24 36 3.2 9.7 0.00 0.00 0.05 84 1013.2
20260508005646 24 343 3.2 6.4 0.00 0.00 0.05 84 1013.2
20260508005147 24 28 6.4 11.3 0.00 0.00 0.05 85 1012.9
20260508004646 24 21 11.3 11.3 0.00 0.00 0.05 85 1013.2
20260508004146 24 20 4.8 11.3 0.00 0.00 0.05 85 1012.9
20260508003650 24 42 4.8 9.7 0.00 0.00 0.05 86 1012.9
20260508003146 24 35 6.4 9.7 0.00 0.00 0.05 85 1012.9
20260508002647 24 17 6.4 11.3 0.00 0.00 0.05 85 1012.9
20260508002146 24 350 3.2 8.0 0.00 0.00 0.05 85 1012.9
20260508001647 24 35 3.2 4.8 0.00 0.00 0.05 85 1012.9
20260508001146 24 46 3.2 8.0 0.00 0.00 0.05 84 1012.9
20260508000646 24 50 6.4 8.0 0.00 0.00 0.05 84 1012.9
20260508000147 24 29 4.8 9.7 0.00 0.00 0.05 83 1012.9
20260507235647 24 8 4.8 6.4 0.00 0.00 0.05 84 1012.5
20260507235146 24 354 0.0 6.4 0.00 0.00 0.05 84 1012.9
20260507234647 24 7 3.2 8.0 0.00 0.00 0.05 83 1012.9
20260507234146 24 48 4.8 11.3 0.00 0.00 0.05 83 1012.9
20260507233647 25 322 6.4 8.0 0.00 0.00 0.05 82 1012.9
20260507233148 24 338 4.8 9.7 0.00 0.00 0.05 83 1012.9
20260507232648 24 1 6.4 8.0 0.00 0.00 0.05 82 1012.9
20260507232147 25 357 3.2 11.3 0.00 0.00 0.05 82 1012.9
20260507231647 25 33 6.4 9.7 0.00 0.00 0.05 81 1012.9
20260507231147 25 338 6.4 9.7 0.00 0.00 0.05 81 1012.9
20260507230647 25 353 4.8 8.0 0.00 0.00 0.05 81 1012.9
20260507230147 25 3 4.8 9.7 0.00 0.00 0.05 81 1012.9
20260507225647 25 308 3.2 8.0 0.00 0.00 0.05 80 1012.9
20260507225147 25 331 9.7 11.3 0.00 0.00 0.05 80 1012.9
20260507224646 25 336 9.7 11.3 0.00 0.00 0.05 80 1012.9
20260507224146 25 305 3.2 9.7 0.00 0.00 0.05 79 1012.9
20260507223646 25 1 3.2 8.0 0.00 0.00 0.05 79 1012.9
20260507223147 25 36 6.4 11.3 0.00 0.00 0.05 78 1012.5
20260507222646 25 11 6.4 9.7 0.00 0.00 0.05 79 1012.5
20260507222146 25 14 3.2 9.7 0.00 0.00 0.05 80 1012.5
20260507221647 25 330 3.2 6.4 0.00 0.00 0.05 79 1012.5
20260507221146 25 352 3.2 4.8 0.00 0.00 0.05 80 1012.5
20260507220646 25 12 6.4 8.0 0.00 0.00 0.05 81 1012.9
20260507220147 25 307 6.4 9.7 0.00 0.00 0.05 80 1012.5
20260507215646 25 355 3.2 9.7 0.00 0.00 0.05 79 1012.5
20260507215148 25 354 4.8 8.0 0.00 0.00 0.05 80 1012.5
20260507214646 24 17 0.0 6.4 0.00 0.00 0.05 82 1012.2
20260507214147 23 312 1.6 8.0 0.00 0.00 0.05 82 1012.5
20260507213646 23 269 0.0 4.8 0.00 0.00 0.05 82 1012.9
20260507213147 24 340 3.2 8.0 0.00 0.00 0.05 82 1012.9
20260507212647 23 9 4.8 6.4 0.00 0.00 0.05 83 1012.2
20260507212150 23 32 0.0 6.4 0.00 0.00 0.05 83 1012.5